Weather in Arequipa

Peru     16°24′38″S   71°30′47″W
temp.,
°C
wind,
m/s
gust,
m/s
humid.,
%
clouds,
%
prec.,
mm/h
press.,
hPa
HPBL,
m
2 august, mon
mon201:00+9ene1145100 0.0 101910
04:00+9nne114926 0.0 101910
07:00+11e11425 0.0 102011
10:00+17wsw42294 0.0 1018919
13:00+19w742618 0.1 10161636
16:00+16wnw42342 0.0 10171364
19:00+11ne014942 0.0 102010
22:00+11ne1149100 0.0 102010
3 august, tue
tue301:00+10nnw1149100 0.0 101810
04:00+10nne114991 0.0 101710
07:00+12ene2241100 0.0 101817
10:00+18wsw43295 0.0 1017979
13:00+19wsw64285 0.1 10141433
16:00+16w4233100 0.1 10141214
19:00+12ne1145100 0.1 1018112
22:00+13ne0140100 0.0 101740
4 august, wed
wed401:00+13sw1141100 0.0 101612
04:00+9sw1155100 0.0 101810
07:00+11ese1147100 0.0 101939
10:00+17wsw32320 0.0 10171008
13:00+19wsw74280 0.0 10151547
16:00+17w43330 0.0 10151419
19:00+12wsw11470 0.0 101910
22:00+11ese22490 0.0 102110
5 august, thu
thu501:00+10e11510 0.0 101910
04:00+8ese01490 0.0 101810
07:00+11e11380 0.0 102012
10:00+17sw32250 0.0 10191120
13:00+20wsw74230 0.0 10151709
16:00+18w53280 0.0 10151370
19:00+12nnw01470 0.0 101910
22:00+10s11520 0.0 102010
6 august, fri
fri601:00+9ene11510 0.0 101910
04:00+8ene11410 0.0 101810
07:00+11ne21250 0.0 101911
10:00+18sw22190 0.0 1018891
13:00+21wsw75200 0.0 10141672
16:00+17wsw54300 0.0 1015991
19:00+11n11530 0.0 102011
22:00+10nw11534 0.0 101910